Flight Track Log - Related Links

Times and Time Zones

All times are in EDT time to prevent confusion due to time zone crossing. See the ASH3732 flight status page for this flight to view local times or setup timezone preferences in your user account.

Time Position Orientation Groundspeed Altitude Reporting Facility
EDT Latitude Longitude Course Direction KTS MPH feet Rate Location/Type
Tue 07:42:08 PM 35.1956 -80.9533 178° South 152 175 1,600  Level Atlanta Center
Tue 07:42:57 PM 35.1600 -80.9519 178° South 167 192 2,900 1,909 Climbing Atlanta Center
Tue 07:43:58 PM 35.1000 -80.9797 201° Southwest 259 298 5,100 2,201 Climbing Atlanta Center
Tue 07:45:16 PM 35.0922 -81.0867 265° West 273 314 8,000 1,739 Climbing Atlanta Center
Tue 07:46:16 PM 35.1319 -81.1792 298° West 326 375 9,100 1,450 Climbing Atlanta Center
Tue 07:47:16 PM 35.2169 -81.1533 14° North 285 328 10,900 2,150 Climbing Atlanta Center
Tue 07:48:16 PM 35.3075 -81.1044 24° Northeast 323 372 13,400 2,300 Climbing Atlanta Center
Tue 07:49:16 PM 35.3983 -81.0553 24° Northeast 342 394 15,500 2,050 Climbing Atlanta Center
Tue 07:50:16 PM 35.4931 -81.0033 24° Northeast 356 410 17,500 1,700 Climbing Atlanta Center
Tue 07:51:16 PM 35.5897 -80.9511 24° Northeast 364 419 18,900 1,400 Climbing Atlanta Center
Tue 07:52:16 PM 35.6936 -80.9344 North 371 427 20,300 1,450 Climbing Atlanta Center
Tue 07:53:16 PM 35.7892 -81.0000 331° Northwest 355 409 21,800 1,400 Climbing Atlanta Center
Tue 07:54:16 PM 35.8828 -81.0733 328° Northwest 377 434 23,100 1,350 Climbing Atlanta Center
Tue 07:55:16 PM 35.9642 -81.1681 317° Northwest 397 457 24,500 1,300 Climbing Atlanta Center
Tue 07:56:16 PM 36.0497 -81.2625 318° Northwest 402 463 25,700 1,100 Climbing Atlanta Center
Tue 07:57:16 PM 36.1353 -81.3597 317° Northwest 412 474 26,700 900 Climbing Atlanta Center
Tue 07:58:16 PM 36.2272 -81.4622 318° Northwest 421 484 27,500 1,000 Climbing Atlanta Center
Tue 07:59:16 PM 36.3189 -81.5625 319° Northwest 428 493 28,700 1,100 Climbing Atlanta Center
Tue 08:00:16 PM 36.4108 -81.6681 317° Northwest 443 510 29,700 900 Climbing Atlanta Center
Tue 08:01:16 PM 36.5025 -81.7711 318° Northwest 443 510 30,500 850 Climbing Atlanta Center
Tue 08:02:16 PM 36.5856 -81.8669 317° Northwest 449 517 31,400 878 Climbing Atlanta Center
Tue 08:04:41 PM 36.8239 -82.1372 318° Northwest 474 545 33,500 845 Climbing Indianapolis Center
Tue 08:05:42 PM 36.9189 -82.2472 317° Northwest 469 540 34,300 780 Climbing Indianapolis Center
Tue 08:06:44 PM 37.0153 -82.3589 317° Northwest 472 543 35,100 780 Climbing Indianapolis Center
Tue 08:07:45 PM 37.1114 -82.4694 317° Northwest 473 544 35,900 439 Climbing Indianapolis Center
Tue 08:08:47 PM 37.2247 -82.6011 317° Northwest 478 550 36,000 48 Climbing Indianapolis Center
Tue 08:09:49 PM 37.3239 -82.7167 317° Northwest 488 562 36,000  Level Indianapolis Center
Tue 08:10:50 PM 37.4222 -82.8319 317° Northwest 486 559 36,000  Level Indianapolis Center
Tue 08:11:52 PM 37.5203 -82.9475 317° Northwest 485 558 36,000  Level Indianapolis Center
Tue 08:12:54 PM 37.6322 -83.0453 325° Northwest 492 566 36,000  Level Indianapolis Center
Tue 08:13:55 PM 37.7447 -83.1417 326° Northwest 490 564 36,000  Level Indianapolis Center
Tue 08:14:57 PM 37.8739 -83.2581 325° Northwest 489 563 36,000  Level Indianapolis Center
Tue 08:15:58 PM 37.9853 -83.3564 325° Northwest 488 562 36,000  Level Indianapolis Center
Tue 08:17:00 PM 38.0961 -83.4547 325° Northwest 486 559 36,000  Level Indianapolis Center
Tue 08:18:02 PM 38.2075 -83.5525 325° Northwest 486 559 36,000  Level Indianapolis Center
Tue 08:19:03 PM 38.3178 -83.6531 324° Northwest 487 560 36,000  Level Indianapolis Center
Tue 08:20:05 PM 38.4286 -83.7517 325° Northwest 485 558 36,000  Level Indianapolis Center
Tue 08:21:06 PM 38.5411 -83.8525 325° Northwest 491 565 36,000  Level Indianapolis Center
Tue 08:22:08 PM 38.6586 -83.9578 325° Northwest 492 566 36,000  Level Indianapolis Center
Tue 08:23:10 PM 38.7717 -84.0619 324° Northwest 492 566 36,000  Level Indianapolis Center
Tue 08:24:11 PM 38.8836 -84.1633 325° Northwest 486 559 36,000  Level Indianapolis Center
Tue 08:25:13 PM 38.9944 -84.2653 324° Northwest 485 558 36,000  Level Indianapolis Center
Tue 08:26:14 PM 39.1228 -84.3833 324° Northwest 481 554 36,000  Level Indianapolis Center
Tue 08:27:16 PM 39.2353 -84.4869 325° Northwest 490 564 36,000  Level Indianapolis Center
Tue 08:28:17 PM 39.3475 -84.5914 324° Northwest 492 566 36,000 -98 Level Indianapolis Center
Tue 08:29:19 PM 39.4708 -84.6794 331° Northwest 508 585 35,800 -341 Descending Indianapolis Center
Tue 08:30:20 PM 39.6153 -84.7217 347° North 526 605 35,300 -390 Descending Indianapolis Center
Tue 08:31:22 PM 39.7578 -84.7722 345° North 524 603 35,000 -146 Descending Indianapolis Center
Tue 08:32:23 PM 39.8978 -84.8197 345° North 516 594 35,000 -49 Level Indianapolis Center
Tue 08:33:25 PM 40.0378 -84.8669 346° North 515 593 34,900 -293 Descending Indianapolis Center
Tue 08:34:26 PM 40.1772 -84.9144 345° North 525 604 34,400 -439 Descending Indianapolis Center
Tue 08:35:28 PM 40.3178 -84.9617 346° North 525 604 34,000 -195 Descending Indianapolis Center
Tue 08:36:29 PM 40.4550 -85.0078 346° North 515 593 34,000  Level Indianapolis Center
Tue 08:37:31 PM 40.6197 -85.0636 346° North 513 590 34,000 -439 Level Indianapolis Center
Tue 08:38:32 PM 40.7575 -85.1114 345° North 516 594 33,100 -885 Descending Indianapolis Center
Tue 08:39:33 PM 40.8764 -85.1503 346° North 515 593 32,200 -1,024 Descending Chicago Center
Tue 08:40:35 PM 41.0122 -85.2653 327° Northwest 488 562 31,000 -1,258 Descending Chicago Center
Tue 08:41:37 PM 41.0708 -85.4097 298° West 444 511 29,600 -1,306 Descending Chicago Center
Tue 08:42:39 PM 41.1206 -85.5553 294° West 431 496 28,300 -1,248 Descending Chicago Center
Tue 08:43:42 PM 41.1706 -85.7019 294° West 432 497 27,000 -1,200 Descending Chicago Center
Tue 08:44:44 PM 41.2203 -85.8478 294° West 432 497 25,800 -968 Descending Chicago Center
Tue 08:45:46 PM 41.2667 -85.9886 294° West 418 481 25,000 -387 Descending Chicago Center
Tue 08:46:48 PM 41.3056 -86.1286 290° West 407 468 25,000  Level Chicago Center
Tue 08:47:50 PM 41.3492 -86.3036 288° West 412 474 25,000 -878 Level Chicago Center
Tue 08:48:51 PM 41.3861 -86.4467 289° West 411 473 23,200 -1,854 Descending Chicago Center
Tue 08:49:53 PM 41.4197 -86.5825 288° West 395 455 21,200 -1,984 Descending Chicago Center
Tue 08:50:55 PM 41.4517 -86.7153 288° West 379 436 19,100 -1,790 Descending Chicago Center
Tue 08:51:57 PM 41.4844 -86.8442 289° West 376 433 17,500 -1,790 Descending Chicago Center
Tue 08:52:59 PM 41.5242 -87.0000 289° West 373 429 15,400 -1,887 Descending Chicago Center
Tue 08:54:01 PM 41.5544 -87.1317 287° West 373 429 13,600 -1,742 Descending Chicago Center
Tue 08:55:03 PM 41.5906 -87.2567 291° West 364 419 11,800 -1,694 Descending Chicago Center
Tue 08:56:05 PM 41.6531 -87.3614 309° West 358 412 10,100 -968 Descending Chicago Center
Tue 08:57:07 PM 41.7094 -87.4544 309° West 328 377 9,800 -1,161 Descending Chicago Center
Tue 08:58:09 PM 41.7700 -87.5536 309° West 293 337 7,700 -1,355 Descending Chicago Center
Tue 08:59:11 PM 41.8169 -87.6319 309° West 276 318 7,000 -339 Descending Chicago Center
Tue 09:00:13 PM 41.8381 -87.7089 290° West 245 282 7,000  Level Chicago Center
Tue 09:01:15 PM 41.8319 -87.7931 264° West 230 265 7,000  Level Chicago Center
Tue 09:02:17 PM 41.8261 -87.8672 264° West 208 239 7,000 -49 Level Chicago Center
Tue 09:03:18 PM 41.7956 -87.9422 241° Southwest 208 239 6,900 -683 Descending Chicago Center
Tue 09:04:20 PM 41.7542 -87.9917 222° Southwest 199 229 5,600 -1,258 Descending Chicago Center
Tue 09:05:22 PM 41.7622 -88.0564 279° West 204 235 4,300 -774 Descending Chicago Center
Tue 09:06:24 PM 41.8083 -88.0672 350° North 193 222 4,000 -387 Descending Chicago Center
Tue 09:07:26 PM 41.8464 -88.0289 37° Northeast 179 206 3,500 -484 Descending Chicago Center

Login

Don't have an account? Register now (free) for customized features, flight alerts, and more!